When you browse on this site, cookies collect data to enhance your experience and personalize the content and advertising you see.
Visit our Privacy Policy to learn more. By continuing to use the site, you agree to this use of cookies and data.
  • în România
  • Lista ţărilor
  • Pe 7 zile
  • Temperatura apei
  • Meteo pe hartă
  • Widget-uri
  • user-avatar
    Intrare

    Meteo pe oră la Oita

    Astăzi, 18 Ianuarie, Sâmbătă

    Timp Temperatura Precipitaţii Vânt Presiune Umiditate
    00:00 +5°C° 0 mm 3 m/s 755 mmHg 80%
    01:00 +4°C° 0 mm 3 m/s 755 mmHg 81%
    02:00 +4°C° 0 mm 3 m/s 754 mmHg 82%
    03:00 +5°C° 0 mm 2 m/s 754 mmHg 82%
    04:00 +5°C° 0.1 mm 2 m/s 754 mmHg 85%
    05:00 +5°C° 0.1 mm 2 m/s 754 mmHg 87%
    06:00 +5°C° 0.1 mm 2 m/s 753 mmHg 89%
    07:00 +6°C° 0.5 mm 2 m/s 754 mmHg 88%
    08:00 +6°C° 0.5 mm 2 m/s 754 mmHg 88%
    09:00 +7°C° 0 mm 2 m/s 755 mmHg 85%
    10:00 +8°C° 0.2 mm 2 m/s 755 mmHg 82%
    11:00 +8°C° 0.2 mm 2 m/s 755 mmHg 79%
    12:00 +9°C° 0.2 mm 2 m/s 754 mmHg 77%
    13:00 +8°C° 0.2 mm 2 m/s 754 mmHg 78%
    14:00 +8°C° 0.2 mm 2 m/s 754 mmHg 80%
    15:00 +8°C° 0.2 mm 2 m/s 754 mmHg 82%
    16:00 +7°C° 0.2 mm 2 m/s 754 mmHg 85%
    17:00 +8°C° 0.2 mm 1 m/s 755 mmHg 88%
    18:00 +8°C° 0.2 mm 1 m/s 755 mmHg 90%
    19:00 +8°C° 0 mm 1 m/s 756 mmHg 90%
    20:00 +7°C° 0 mm 1 m/s 756 mmHg 90%
    21:00 +7°C° 0 mm 1 m/s 756 mmHg 89%
    22:00 +7°C° 0 mm 1 m/s 757 mmHg 89%
    23:00 +7°C° 0 mm 1 m/s 757 mmHg 88%

    Mâine, 19 Ianuarie, Duminică

    Timp Temperatura Precipitaţii Vânt Presiune Umiditate
    00:00 +6°C° 0 mm 1 m/s 757 mmHg 88%
    01:00 +6°C° 0 mm 1 m/s 757 mmHg 88%
    02:00 +6°C° 0 mm 1 m/s 756 mmHg 88%
    03:00 +6°C° 0 mm 1 m/s 756 mmHg 88%
    04:00 +6°C° 0 mm 1 m/s 756 mmHg 88%
    05:00 +6°C° 0 mm 1 m/s 756 mmHg 88%
    06:00 +6°C° 0 mm 1 m/s 757 mmHg 88%
    07:00 +6°C° 0 mm 1 m/s 757 mmHg 86%
    08:00 +7°C° 0 mm 1 m/s 757 mmHg 84%
    09:00 +8°C° 0 mm 1 m/s 757 mmHg 82%
    10:00 +10°C° 0 mm 1 m/s 757 mmHg 76%
    11:00 +11°C° 0 mm 1 m/s 757 mmHg 70%
    12:00 +13°C° 0 mm 1 m/s 757 mmHg 64%
    13:00 +13°C° 0 mm 2 m/s 757 mmHg 64%
    14:00 +12°C° 0 mm 2 m/s 756 mmHg 64%
    15:00 +11°C° 0 mm 3 m/s 756 mmHg 64%
    16:00 +10°C° 0 mm 3 m/s 757 mmHg 68%
    17:00 +8°C° 0 mm 3 m/s 757 mmHg 72%
    18:00 +7°C° 0 mm 3 m/s 757 mmHg 76%
    19:00 +7°C° 0 mm 3 m/s 758 mmHg 77%
    20:00 +5°C° 0 mm 3 m/s 758 mmHg 78%
    21:00 +4°C° 0 mm 3 m/s 758 mmHg 79%
    22:00 +4°C° 0 mm 3 m/s 758 mmHg 78%
    23:00 +5°C° 0 mm 2 m/s 758 mmHg 78%

    Poimâine, 20 Ianuarie, Luni

    Timp Temperatura Precipitaţii Vânt Presiune Umiditate
    00:00 +5°C° 0 mm 2 m/s 758 mmHg 77%
    01:00 +5°C° 0 mm 2 m/s 758 mmHg 79%
    02:00 +5°C° 0 mm 2 m/s 758 mmHg 80%
    03:00 +5°C° 0 mm 2 m/s 758 mmHg 82%
    04:00 +5°C° 0 mm 2 m/s 758 mmHg 83%
    05:00 +5°C° 0 mm 2 m/s 758 mmHg 83%
    06:00 +5°C° 0 mm 2 m/s 758 mmHg 84%
    07:00 +6°C° 0 mm 2 m/s 758 mmHg 81%
    08:00 +7°C° 0 mm 2 m/s 759 mmHg 78%
    09:00 +8°C° 0 mm 2 m/s 759 mmHg 76%
    10:00 +9°C° 0 mm 2 m/s 759 mmHg 70%
    11:00 +10°C° 0 mm 3 m/s 759 mmHg 65%
    12:00 +11°C° 0 mm 3 m/s 759 mmHg 59%
    13:00 +11°C° 0 mm 4 m/s 759 mmHg 56%
    14:00 +11°C° 0 mm 4 m/s 759 mmHg 53%
    15:00 +11°C° 0 mm 4 m/s 758 mmHg 50%
    16:00 +10°C° 0 mm 4 m/s 759 mmHg 57%
    17:00 +7°C° 0 mm 5 m/s 759 mmHg 63%
    18:00 +6°C° 0 mm 5 m/s 760 mmHg 69%
    19:00 +5°C° 0 mm 4 m/s 760 mmHg 71%
    20:00 +4°C° 0 mm 4 m/s 761 mmHg 74%
    21:00 +4°C° 0 mm 4 m/s 761 mmHg 76%
    22:00 +3°C° 0 mm 3 m/s 762 mmHg 77%
    23:00 +3°C° 0 mm 3 m/s 762 mmHg 77%

    21 Ianuarie, Marţi

    Timp Temperatura Precipitaţii Vânt Presiune Umiditate
    00:00 +3°C° 0 mm 3 m/s 762 mmHg 78%
    01:00 +3°C° 0 mm 3 m/s 762 mmHg 79%
    02:00 +3°C° 0 mm 2 m/s 762 mmHg 79%
    03:00 +3°C° 0 mm 2 m/s 762 mmHg 80%
    04:00 +3°C° 0 mm 2 m/s 762 mmHg 80%
    05:00 +3°C° 0 mm 2 m/s 763 mmHg 80%
    06:00 +3°C° 0 mm 2 m/s 763 mmHg 80%
    07:00 +4°C° 0 mm 2 m/s 763 mmHg 75%
    08:00 +5°C° 0 mm 2 m/s 764 mmHg 70%
    09:00 +7°C° 0 mm 2 m/s 764 mmHg 64%
    10:00 +8°C° 0 mm 2 m/s 764 mmHg 61%
    11:00 +9°C° 0 mm 2 m/s 764 mmHg 58%
    12:00 +10°C° 0 mm 2 m/s 764 mmHg 55%
    13:00 +10°C° 0 mm 2 m/s 764 mmHg 55%
    14:00 +10°C° 0 mm 2 m/s 763 mmHg 55%
    15:00 +12°C° 0 mm 2 m/s 763 mmHg 54%
    16:00 +10°C° 0 mm 1 m/s 763 mmHg 61%
    17:00 +8°C° 0 mm 1 m/s 763 mmHg 67%
    18:00 +7°C° 0 mm 1 m/s 764 mmHg 74%
    19:00 +6°C° 0 mm 1 m/s 764 mmHg 75%
    20:00 +6°C° 0 mm 1 m/s 764 mmHg 76%
    21:00 +6°C° 0 mm 1 m/s 764 mmHg 77%
    22:00 +6°C° 0 mm 1 m/s 764 mmHg 77%
    23:00 +6°C° 0 mm 1 m/s 764 mmHg 76%

    22 Ianuarie, Miercuri

    Timp Temperatura Precipitaţii Vânt Presiune Umiditate
    00:00 +6°C° 0 mm 1 m/s 764 mmHg 76%
    01:00 +6°C° 0 mm 1 m/s 764 mmHg 77%
    02:00 +6°C° 0 mm 1 m/s 764 mmHg 78%
    03:00 +6°C° 0 mm 1 m/s 763 mmHg 78%
    04:00 +6°C° 0 mm 1 m/s 763 mmHg 79%
    05:00 +6°C° 0 mm 1 m/s 763 mmHg 80%
    06:00 +6°C° 0 mm 1 m/s 763 mmHg 80%
    07:00 +7°C° 0 mm 1 m/s 763 mmHg 77%
    08:00 +8°C° 0 mm 1 m/s 763 mmHg 73%
    09:00 +9°C° 0 mm 1 m/s 763 mmHg 69%
    10:00 +11°C° 0 mm 1 m/s 763 mmHg 66%
    11:00 +12°C° 0 mm 1 m/s 763 mmHg 63%
    12:00 +14°C° 0 mm 1 m/s 762 mmHg 60%
    13:00 +14°C° 0 mm 2 m/s 762 mmHg 63%
    14:00 +14°C° 0 mm 2 m/s 761 mmHg 67%
    15:00 +14°C° 0 mm 2 m/s 761 mmHg 70%
    16:00 +13°C° 0 mm 2 m/s 761 mmHg 74%
    17:00 +13°C° 0 mm 1 m/s 761 mmHg 78%
    18:00 +12°C° 0 mm 1 m/s 761 mmHg 81%
    19:00 +12°C° 0 mm 1 m/s 761 mmHg 83%
    20:00 +12°C° 0 mm 1 m/s 761 mmHg 84%
    21:00 +12°C° 0 mm 1 m/s 761 mmHg 86%
    22:00 +12°C° 0 mm 1 m/s 761 mmHg 87%
    23:00 +12°C° 0 mm 1 m/s 760 mmHg 88%

    23 Ianuarie, Joi

    Timp Temperatura Precipitaţii Vânt Presiune Umiditate
    00:00 +12°C° 0 mm 1 m/s 760 mmHg 90%
    01:00 +12°C° 0 mm 1 m/s 760 mmHg 90%
    02:00 +12°C° 0 mm 1 m/s 759 mmHg 90%
    03:00 +11°C° 0 mm 1 m/s 759 mmHg 90%
    04:00 +11°C° 0 mm 1 m/s 759 mmHg 90%
    05:00 +11°C° 0 mm 1 m/s 759 mmHg 90%
    06:00 +11°C° 0 mm 1 m/s 758 mmHg 90%
    07:00 +12°C° 0 mm 1 m/s 758 mmHg 87%
    08:00 +13°C° 0 mm 1 m/s 759 mmHg 84%
    09:00 +14°C° 0 mm 1 m/s 759 mmHg 81%
    10:00 +15°C° 0 mm 1 m/s 758 mmHg 81%
    11:00 +16°C° 0 mm 1 m/s 758 mmHg 80%
    12:00 +18°C° 0 mm 1 m/s 758 mmHg 79%
    13:00 +16°C° 0.2 mm 1 m/s 758 mmHg 82%
    14:00 +16°C° 0.2 mm 1 m/s 758 mmHg 86%
    15:00 +16°C° 0.2 mm 1 m/s 758 mmHg 89%
    16:00 +15°C° 0.5 mm 1 m/s 758 mmHg 92%
    17:00 +14°C° 0.5 mm 1 m/s 758 mmHg 94%
    18:00 +14°C° 0.5 mm 1 m/s 758 mmHg 97%
    19:00 +14°C° 0.4 mm 1 m/s 758 mmHg 97%
    20:00 +13°C° 0.4 mm 0 m/s 758 mmHg 97%
    21:00 +12°C° 0.4 mm 0 m/s 758 mmHg 98%
    22:00 +13°C° 0.1 mm 1 m/s 758 mmHg 97%
    23:00 +13°C° 0.1 mm 1 m/s 758 mmHg 97%
    Arată mai mult